カタログに戻る

DELTA 1 DEB

運用中SSO
NORAD 12262·DEBRIS·🇺🇸 United States

打ち上げ Mar 5, 1978 から Vandenberg Space Force Base

Loading…

次のパス (今後24時間)

TLE

最新Source: Space-Track

元期: Sep 13, 2026, 23:01 UTC

1 12262U 78026DF  26256.95958647  .00001767  00000-0  79790-3 0  9996
2 12262  99.0259  46.7656 0091965 311.4306 171.5637 14.21251084317055

AllMySatでDELTA 1 DEBをリアルタイム追跡

Download on the App Store